星链-3667 (STARLINK-3667 )

导读

STARLINK-3667是美国太空探索技术公司(SpaceX)星链(Starlink)计划中的一颗卫星,于2022年3月9日发射升空,属于星链星座组网卫星,主要用于为全球提供高速互联网接入服务,尤其覆盖偏远地区等网络基础设施薄弱区域,推动全球互联网络覆盖建设,是星链低轨卫星互联网星座的组成部分。

Basic Information
目录编号:
51999
目录名称:
STARLINK-3667
国际标识:
2022-025AV
轨道中心:
EARTH
卫星名称:
星链-3667
卫星全名:
星链-3667 (STARLINK-3667 )
卫星状态:
已陨落 最后检测时间 2025-10-23
发射日期:
2022-03-09 UTC
国别 :
美国 (US)
星等 :
--
Orbit Information
数据来源 国际轨道数据
星历时间: 2025-10-23T16:09:05+0800
轨道信息已过期237天
半长轴: 6522.819km
偏心率: 0.0009349
轨道倾角: 53.202°
近地点辐角 217.814°
升交点赤经 253.462°
平近点角 142.226°
近地点: 138.585km
远地点: 150.783km
周期: 87.380分钟
每日圈数: 16.479718
Detailed Information
固有亮度:
5
最大亮度:
2.5
卫星平台:
Starlink v1.5
覆盖范围:
全球
运营商:
太空探索技术公司
运营商所在国:
美国
制造商(研发单位):
太空探索技术公司
制造商所在国:
美国
使用方式:
暂无
Satellite Introduction
星链(Starlink)计划是由太空探索技术公司(SpaceX)提出的一个巨型低轨卫星互联网星座项目,计划在2019年至2024年间在太空搭建由约1.2万颗卫星组成的“星链”网络,其中1584颗将部署在地球上空550千米处的近地轨道,并从2020年开始工作。该卫星仍在工作。